Location: *
(33.8649°S, 62.1526°E)
Time: 07:33:38
(UTC+00:00)

CZ-3B R/B - Visible Passes

Search period start: 09 May 2021 00:00
Search period end: 19 May 2021 00:00
Orbit: 158 x 4713 km, 25.6° (Epoch: 08 May)

Date Brightness Start Highest point End Pass type
(mag) Time Alt. Az. Time Alt. Az. Time Alt. Az.
09 May 5.0 15:19:46 10° W 15:36:01 35° NW 15:41:38 20° NNE visible
10 May 5.5 13:57:49 10° W 14:21:00 51° NNW 14:31:33 10° NE visible
10 May 5.6 16:38:52 10° W 16:46:20 16° NW 16:49:20 14° NNW visible
11 May 5.4 15:14:15 10° W 15:31:06 32° NW 15:38:45 14° NNE visible
12 May 5.7 13:49:03 10° W 14:13:12 49° NNW 14:24:48 10° NE visible
12 May 5.8 16:31:10 10° WNW 16:38:30 15° NW 16:43:38 10° NNW visible
13 May 5.7 15:02:31 10° W 15:20:23 31° NW 15:29:49 10° NNE visible
14 May 5.9 13:34:13 10° W 13:59:27 48° NNW 14:12:24 10° NE visible
14 May 6.0 16:17:01 10° WNW 16:24:59 15° NW 16:30:40 10° NNW visible
15 May 5.9 14:44:34 10° W 15:03:50 31° NW 15:14:29 10° NNE visible
16 May 6.1 13:13:25 10° W 13:39:42 47° NNW 13:54:21 10° NE visible
16 May 6.3 15:56:13 10° W 16:05:44 15° NW 16:12:29 10° NNW visible
17 May 6.2 14:20:28 10° W 14:41:24 32° NW 14:53:36 10° NNE visible
18 May 6.3 12:46:51 10° W 13:13:55 48° NNW 13:30:35 10° NE visible
18 May 6.4 15:28:47 10° W 15:40:44 17° NW 15:49:05 10° NNW visible
